Strona główna
METAR-TAF:

METAR-TAF

Lotnisko :

Platforma wiertnicza

Troll C, Norwegia

Szerokość geograficzna: 60-53-09N, Długość geograficzna: 3-36-35E, wysokość: 20 m

Aktualna obserwacja pogody

Raport powstał 27 minut temu, godzina 12:50 UTC
Wiatr 5 kt od południowo-południowy zachód
Temperatura 11°C
Wilgotność 76%
Ciśnienie 997 hPa
Widzialność 10 km lub więcej

METAR: ENQC 041250Z AUTO 21005KT 9999NDV /// 11/07 Q0997 W///S4

czas: 15:17 (13:17 UTC)


TAF: brakujący

Obserwacja i prognoza pogody dla ponad 4000 lotnisk (raport METAR i TAF).

Dostępne stacje oznaczono żółtymi i czerwonymi punktami na mapie.

Najedź kursorem aby zobaczyć nazwę stacji.

Kliknij aby zobaczyć obserwacje i prognozy pogody.

Aby zmienić mapę: kliknij na zielony przycisk z czarnym krzyżykiem, aby powiększyć; na zielony przycisk z myślnikiem, aby pomniejszyć; na zielone strzałki, aby przejść do map sąsiednich.


METAR-TAF: